Location: Newark
(12.4436°N, 0.6167°W)
Time: 15:37:17
(UTC+00:00)

Vanguard 2 - Pass Details

Date: 10 December 2019
Orbit: 553 x 2938 km, 32.9° (Epoch: 18 January)

Event Time Altitude Azimuth Distance (km) Brightness Sun altitude
Rises 21:23:56 0° 213° (SSW) 4,066 11.7 -52.6°
Reaches altitude 10° 21:26:30 10° 205° (SSW) 3,373 11.1 -53.2°
Enters shadow 21:27:17 13° 202° (SSW) 3,188 10.9 -53.3°
Maximum altitude 21:34:52 41° 137° (SE) 2,484 - -55.0°
Drops below altitude 10° 21:47:53 10° 73° (ENE) 5,221 - -58.0°
Sets 21:52:56 0° 67° (ENE) 6,497 - -59.1°
